BINAR-4

导读

BINAR-4(必纳尔4号)是澳大利亚科廷大学研发的技术试验卫星,隶属于必纳尔卫星系列。该卫星于1998年11月20日发射,运行于近地轨道,轨道近地点201公里、远地点207公里,轨道倾角51.6°,设计寿命3个月,主要开展空间技术验证试验,为澳大利亚小卫星技术发展积累了实践经验。

基本信息
目录编号:
60952
目录名称:
BINAR-4
国际标识:
1998-067WS
轨道中心:
EARTH
卫星名称:
BINAR-4
卫星全名:
BINAR-4
卫星状态:
已陨落 最后检测时间 2024-11-08
发射日期:
1998-11-20 UTC
国别 :
澳大利亚 (AU)
星等 :
--
轨道信息
数据来源 国际轨道数据
星历时间: 2024-11-04T22:35:13+0800
轨道信息已过期616天
半长轴: 6582.144km
偏心率: 0.0004199
轨道倾角: 51.610°
近地点辐角 58.162°
升交点赤经 332.594°
平近点角 301.981°
近地点: 201.245km
远地点: 206.773km
周期: 88.575分钟
每日圈数: 16.257424
详细信息
使用方式:
暂无